User: anonymous   Login
Location: NJAA Observatory
(40.6819°N, 74.8979°W)
Time: 22:02:21
(UTC-04:00)
Language:

Meteor 2-9 Rocket - Orbit

View from above orbital plane
View from above orbital plane
View from above satellite
View from above satellite

Ground track
Ground track

The orbit data is extracted from the following two-line orbital elements,

1 13719U 82116B   16180.09020719  .00000095  00000-0  42250-4 0  9994
2 13719  81.2542 347.2410 0070684 283.0490 216.0536 14.14584381730302
Epoch (UTC): 28 June 2016 02:09:53
Eccentricity: 0.0070684
inclination: 81.2542°
perigee height: 792 km
apogee height: 895 km
right ascension of ascending node: 347.2410°
argument of perigee: 283.0490°
revolutions per day: 14.14584381
mean anomaly at epoch: 216.0536°
orbit number at epoch: 73030

The dashed part of the orbit path shows where the satellite is in the earth's shadow,  

DLR